Time,TemperatureF,DewpointF,PressureIn,WindDirection,WindDirectionDegrees,WindSpeedMPH,WindSpeedGustMPH,Humidity,HourlyPrecipIn,Conditions,Clouds,dailyrainin,SolarRadiationWatts/m^2,SoftwareType,DateUTC
2016-02-09 00:02:00,33.3,30.7,29.60,West,262,3.0,5.0,90,0.00,,,0.00,0,Wunderground v.1.15,2016-02-09 05:02:00,
2016-02-09 00:08:00,33.3,30.7,29.60,WNW,284,3.0,5.0,90,0.00,,,0.00,0,Wunderground v.1.15,2016-02-09 05:08:00,
2016-02-09 00:14:00,33.3,30.7,29.60,WNW,288,2.0,3.0,90,0.00,,,0.00,0,Wunderground v.1.15,2016-02-09 05:14:00,
2016-02-09 00:20:00,33.4,30.8,29.61,WNW,288,2.0,2.0,90,0.00,,,0.00,0,Wunderground v.1.15,2016-02-09 05:20:00,
2016-02-09 00:26:00,33.4,31.1,29.61,WNW,282,2.0,5.0,91,0.00,,,0.00,0,Wunderground v.1.15,2016-02-09 05:26:00,
2016-02-09 00:32:00,33.4,31.1,29.60,WNW,282,3.0,3.0,91,0.00,,,0.00,0,Wunderground v.1.15,2016-02-09 05:32:00,
2016-02-09 00:38:00,33.4,31.1,29.60,West,277,3.0,6.0,91,0.00,,,0.00,0,Wunderground v.1.15,2016-02-09 05:38:00,
2016-02-09 00:44:00,33.4,31.3,29.60,West,267,4.0,5.0,92,0.00,,,0.00,0,Wunderground v.1.15,2016-02-09 05:44:00,
2016-02-09 00:50:00,33.4,31.3,29.60,WNW,286,3.0,3.0,92,0.00,,,0.00,0,Wunderground v.1.15,2016-02-09 05:50:00,
2016-02-09 00:56:00,33.4,31.3,29.60,WNW,284,3.0,3.0,92,0.00,,,0.00,0,Wunderground v.1.15,2016-02-09 05:56:00,
2016-02-09 01:02:00,33.3,31.2,29.59,WNW,293,2.0,4.0,92,0.00,,,0.00,0,Wunderground v.1.15,2016-02-09 06:02:00,
2016-02-09 01:08:00,33.3,31.5,29.59,WNW,298,3.0,5.0,93,0.00,,,0.00,0,Wunderground v.1.15,2016-02-09 06:08:00,
2016-02-09 01:20:00,33.3,31.5,29.59,West,277,4.0,4.0,93,0.00,,,0.00,0,Wunderground v.1.15,2016-02-09 06:20:00,
2016-02-09 01:26:00,33.2,31.4,29.59,WNW,282,3.0,4.0,93,0.00,,,0.00,0,Wunderground v.1.15,2016-02-09 06:26:00,
2016-02-09 01:32:00,33.2,31.4,29.59,WNW,289,3.0,3.0,93,0.00,,,0.00,0,Wunderground v.1.15,2016-02-09 06:32:00,
2016-02-09 01:38:00,33.2,31.4,29.59,West,275,2.0,6.0,93,0.00,,,0.00,0,Wunderground v.1.15,2016-02-09 06:38:00,
2016-02-09 01:44:00,33.1,31.3,29.59,West,275,2.0,3.0,93,0.00,,,0.00,0,Wunderground v.1.15,2016-02-09 06:44:00,
2016-02-09 01:50:00,33.0,31.2,29.58,West,276,1.0,3.0,93,0.00,,,0.00,0,Wunderground v.1.15,2016-02-09 06:50:00,
2016-02-09 01:56:00,33.0,31.2,29.58,West,263,2.0,4.0,93,0.00,,,0.00,0,Wunderground v.1.15,2016-02-09 06:56:00,
2016-02-09 02:02:00,33.0,31.5,29.58,West,263,3.0,3.0,94,0.00,,,0.00,0,Wunderground v.1.15,2016-02-09 07:02:00,
2016-02-09 02:08:00,33.0,31.5,29.58,West,263,3.0,3.0,94,0.00,,,0.00,0,Wunderground v.1.15,2016-02-09 07:08:00,
2016-02-09 02:14:00,33.0,31.2,29.58,WNW,282,3.0,4.0,93,0.00,,,0.00,0,Wunderground v.1.15,2016-02-09 07:14:00,
2016-02-09 02:20:00,32.9,31.1,29.58,WNW,289,3.0,3.0,93,0.00,,,0.00,0,Wunderground v.1.15,2016-02-09 07:20:00,
2016-02-09 02:26:00,32.8,31.0,29.58,West,269,4.0,4.0,93,0.00,,,0.00,0,Wunderground v.1.15,2016-02-09 07:26:00,
2016-02-09 02:32:00,32.8,31.0,29.58,West,279,4.0,4.0,93,0.00,,,0.00,0,Wunderground v.1.15,2016-02-09 07:32:00,
2016-02-09 02:38:00,32.8,31.0,29.58,WNW,296,4.0,6.0,93,0.00,,,0.00,0,Wunderground v.1.15,2016-02-09 07:38:00,
2016-02-09 02:44:00,32.7,30.9,29.58,WNW,284,3.0,6.0,93,0.00,,,0.00,0,Wunderground v.1.15,2016-02-09 07:44:00,
2016-02-09 02:50:00,32.7,30.9,29.58,West,268,4.0,4.0,93,0.00,,,0.00,0,Wunderground v.1.15,2016-02-09 07:50:00,
2016-02-09 02:56:00,32.7,30.9,29.58,West,267,3.0,4.0,93,0.00,,,0.00,0,Wunderground v.1.15,2016-02-09 07:56:00,
2016-02-09 03:02:00,32.6,30.8,29.58,WNW,291,4.0,7.0,93,0.00,,,0.00,0,Wunderground v.1.15,2016-02-09 08:02:00,
2016-02-09 03:08:00,32.6,30.8,29.58,WNW,284,5.0,7.0,93,0.00,,,0.00,0,Wunderground v.1.15,2016-02-09 08:08:00,
2016-02-09 03:20:00,32.6,30.8,29.58,WSW,243,4.0,4.0,93,0.00,,,0.00,0,Wunderground v.1.15,2016-02-09 08:20:00,
2016-02-09 03:26:00,32.6,30.8,29.58,West,271,4.0,4.0,93,0.00,,,0.00,0,Wunderground v.1.15,2016-02-09 08:26:00,
2016-02-09 03:32:00,32.5,30.7,29.57,West,268,4.0,4.0,93,0.00,,,0.00,0,Wunderground v.1.15,2016-02-09 08:32:00,
2016-02-09 03:38:00,32.6,30.8,29.57,WSW,258,4.0,5.0,93,0.00,,,0.00,0,Wunderground v.1.15,2016-02-09 08:38:00,
2016-02-09 03:44:00,32.5,30.7,29.57,West,279,4.0,6.0,93,0.00,,,0.00,0,Wunderground v.1.15,2016-02-09 08:44:00,
2016-02-09 03:56:00,32.5,30.7,29.57,West,278,4.0,5.0,93,0.00,,,0.00,0,Wunderground v.1.15,2016-02-09 08:56:00,
2016-02-09 04:02:00,32.5,30.7,29.57,West,259,4.0,4.0,93,0.00,,,0.00,0,Wunderground v.1.15,2016-02-09 09:02:00,
2016-02-09 04:08:00,32.5,30.4,29.57,WNW,287,3.0,6.0,92,0.00,,,0.00,0,Wunderground v.1.15,2016-02-09 09:08:00,
2016-02-09 04:14:00,32.4,30.3,29.57,West,259,4.0,4.0,92,0.00,,,0.00,0,Wunderground v.1.15,2016-02-09 09:14:00,
2016-02-09 04:26:00,32.3,30.2,29.56,WSW,254,4.0,10.0,92,0.00,,,0.00,0,Wunderground v.1.15,2016-02-09 09:26:00,
2016-02-09 04:32:00,32.2,30.1,29.56,West,267,5.0,5.0,92,0.00,,,0.00,0,Wunderground v.1.15,2016-02-09 09:32:00,
2016-02-09 04:38:00,32.1,30.3,29.56,WNW,297,4.0,5.0,93,0.00,,,0.00,0,Wunderground v.1.15,2016-02-09 09:38:00,
2016-02-09 04:44:00,32.1,30.3,29.56,West,273,4.0,4.0,93,0.00,,,0.00,0,Wunderground v.1.15,2016-02-09 09:44:00,
2016-02-09 04:50:00,32.0,30.2,29.56,WSW,244,4.0,5.0,93,0.00,,,0.00,0,Wunderground v.1.15,2016-02-09 09:50:00,
2016-02-09 04:56:00,31.9,30.1,29.57,West,271,5.0,7.0,93,0.00,,,0.00,0,Wunderground v.1.15,2016-02-09 09:56:00,
2016-02-09 05:02:00,31.8,30.0,29.57,WNW,283,5.0,5.0,93,0.00,,,0.00,0,Wunderground v.1.15,2016-02-09 10:02:00,
2016-02-09 05:08:00,31.8,30.0,29.57,West,279,4.0,5.0,93,0.00,,,0.00,0,Wunderground v.1.15,2016-02-09 10:08:00,
2016-02-09 05:14:00,31.7,29.9,29.57,West,264,4.0,6.0,93,0.00,,,0.00,0,Wunderground v.1.15,2016-02-09 10:14:00,
2016-02-09 05:20:00,31.6,29.8,29.57,West,269,5.0,5.0,93,0.00,,,0.00,0,Wunderground v.1.15,2016-02-09 10:20:00,
2016-02-09 05:26:00,31.6,30.1,29.57,West,273,4.0,6.0,94,0.00,,,0.00,0,Wunderground v.1.15,2016-02-09 10:26:00,
2016-02-09 05:32:00,31.5,30.0,29.57,WNW,286,4.0,4.0,94,0.00,,,0.00,0,Wunderground v.1.15,2016-02-09 10:32:00,
2016-02-09 05:38:00,31.5,30.0,29.58,WNW,282,4.0,5.0,94,0.00,,,0.00,0,Wunderground v.1.15,2016-02-09 10:38:00,